Tracking 18980 objects as of 22-Feb-2018
HD Live streaming from Space Station
objects crossing your sky now

FENGYUN 1C DEB

Track FENGYUN 1C DEB now!
10-day predictions


NORAD ID: 30443
Int'l Code: 1999-025AFE
Perigee: 826.9 km
Apogee: 875.6 km
Inclination: 98.8 °
Period: 101.8 minutes
Semi major axis: 7222 km
RCS: 0.034 m2 (small)
Launch date: May 10, 1999
Source: People's Republic of China (PRC)
Launch site: Taiyaun Space Center, China (TSC)

Note: This is SATELLITE DEBRIS
aabbcc
Your satellite tracking list
Your tracking list is empty




NASA's NSSDC Master Catalog

Two Line Element Set (TLE):
1 30443U 99025AFE 18052.71046053 +.00000669 +00000-0 +36989-3 0  9990
2 30443 098.7996 334.5479 0033687 246.7925 112.9699 14.14463813569733
Source of the keplerian elements: AFSPC